Location: Fort Wayne
(41.1310°N, 85.1290°W)
Time: 18:24:05
(UTC-05:00)

Gbstr 26 Del rocket - Visible Passes

Search period start: 22 December 2014 00:00
Search period end: 01 January 2015 00:00
Orbit: 494 x 1274 km, 51.8° (Epoch: 21 December)

Date Brightness Start Highest point End Pass type
(mag) Time Alt. Az. Time Alt. Az. Time Alt. Az.
22 Dec 5.2 19:08:54 10° W 19:16:22 42° N 19:20:02 28° NE visible
22 Dec 5.8 20:57:58 10° WNW 21:02:42 32° NNW 21:02:42 32° NNW visible
23 Dec 5.3 19:06:13 10° WNW 19:13:38 40° N 19:17:16 27° NE visible
23 Dec 5.7 20:55:07 10° NW 20:59:56 33° NNW 20:59:56 33° NNW visible
24 Dec 5.3 19:03:31 10° WNW 19:10:54 39° N 19:14:30 27° NE visible
24 Dec 5.6 20:52:14 10° NW 20:57:10 35° NNW 20:57:10 35° NNW visible
25 Dec 5.3 19:00:48 10° WNW 19:08:10 39° N 19:11:45 27° NE visible
25 Dec 5.5 20:49:19 10° NW 20:54:25 38° NNW 20:54:25 38° NNW visible
26 Dec 5.2 18:58:02 10° WNW 19:05:26 39° N 19:09:02 27° NE visible
26 Dec 5.4 20:46:23 10° NW 20:51:42 41° NNW 20:51:42 41° NNW visible
26 Dec 7.1 22:34:21 10° WNW 22:34:22 10° WNW 22:34:22 10° WNW visible
27 Dec 5.2 18:55:14 10° WNW 19:02:40 40° N 19:06:21 27° NE visible
27 Dec 5.2 20:43:25 10° NW 20:49:01 45° NNW 20:49:01 45° NNW visible
27 Dec 7.0 22:31:27 10° WNW 22:31:41 11° WNW 22:31:41 11° WNW visible
28 Dec 5.1 18:52:24 10° WNW 18:59:54 41° N 19:03:43 27° ENE visible
28 Dec 5.0 20:40:26 10° NW 20:46:24 51° NW 20:46:24 51° NW visible
28 Dec 7.0 22:28:36 10° WNW 22:29:04 12° WNW 22:29:04 12° WNW visible
29 Dec 5.0 18:49:32 10° WNW 18:57:07 43° NNE 19:01:10 27° ENE visible
29 Dec 4.9 20:37:26 10° NW 20:43:51 59° NW 20:43:51 59° NW visible
29 Dec 6.9 22:25:49 10° WNW 22:26:32 13° WNW 22:26:32 13° WNW visible
30 Dec 4.9 18:46:37 10° NW 18:54:17 46° NNE 18:58:43 26° ENE visible
30 Dec 4.7 20:34:27 10° NW 20:41:24 67° WNW 20:41:24 67° WNW visible
30 Dec 6.9 22:23:07 10° WNW 22:24:05 13° WNW 22:24:05 13° WNW visible
31 Dec 4.8 18:43:41 10° NW 18:51:26 50° NNE 18:56:23 24° E visible
31 Dec 4.6 20:31:27 10° NW 20:39:05 72° WSW 20:39:05 72° WSW visible
31 Dec 6.9 22:20:34 10° WNW 22:21:47 13° W 22:21:47 13° W visible
